This is the latest recevied weather packets stored in our database for station/object W6MAF. If no packets are shown the sender has not sent any weather packets the latest 10 day(s).
| Time | Temp. | Humidity | Pressure | Rain* | Wind** | Luminosity | Snow |
|---|---|---|---|---|---|---|---|
| 1777415235 | 19.44° C | 6% | - | 0 mm | 4.02 m/s, 170° | - | - |
| 1777414937 | 19.44° C | 6% | - | 0 mm | 4.02 m/s, 201° | - | - |
| 1777414639 | 19.44° C | 6% | - | 0 mm | 4.47 m/s, 191° | - | - |
| 1777414044 | 18.89° C | 6% | - | 0 mm | 5.81 m/s, 195° | - | - |
| 1777413747 | 18.89° C | 6% | - | 0 mm | 3.13 m/s, 173° | - | - |
| 1777413446 | 18.89° C | 6% | - | 0 mm | 4.92 m/s, 173° | - | - |
| 1777413148 | 18.89° C | 6% | - | 0 mm | 3.58 m/s, 183° | - | - |
| 1777412553 | 18.89° C | 6% | - | 0 mm | 6.71 m/s, 170° | - | - |
| 1777412255 | 18.89° C | 6% | - | 0 mm | 5.81 m/s, 179° | - | - |
| 1777411959 | 18.89° C | 6% | - | 0 mm | 4.47 m/s, 158° | - | - |
| 1777411656 | 19.44° C | 5% | - | 0 mm | 7.6 m/s, 169° | - | - |
| 1777411359 | 19.44° C | 5% | - | 0 mm | 5.36 m/s, 159° | - | - |
| 1777411061 | 19.44° C | 6% | - | 0 mm | 5.36 m/s, 170° | - | - |
| 1777410806 | 19.44° C | 5% | - | 0 mm | 4.47 m/s, 179° | - | - |
| 1777410763 | 19.44° C | 5% | - | 0 mm | 4.47 m/s, 179° | - | - |
| 1777410466 | 19.44° C | 5% | - | 0 mm | 6.71 m/s, 173° | - | - |
| 1777410168 | 19.44° C | 5% | - | 0 mm | 5.36 m/s, 170° | - | - |
| 1777409867 | 19.44° C | 5% | - | 0 mm | 4.47 m/s, 165° | - | - |
| 1777409570 | 19.44° C | 5% | - | 0 mm | 3.13 m/s, 111° | - | - |
| 1777409272 | 19.44° C | 5% | - | 0 mm | 3.58 m/s, 160° | - | - |
| 1777408974 | 19.44° C | 5% | - | 0 mm | 4.02 m/s, 155° | - | - |
| 1777408677 | 19.44° C | 5% | - | 0 mm | 3.58 m/s, 181° | - | - |
| 1777408379 | 19.44° C | 5% | - | 0 mm | 2.24 m/s, 155° | - | - |
| 1777408078 | 19.44° C | 5% | - | 0 mm | 2.24 m/s, 169° | - | - |
| 1777407781 | 19.44° C | 6% | - | 0 mm | 1.79 m/s, 190° | - | - |
* Rain latest hour (hover to see other rain measurements)
** Current wind speed in m/s (hover to see current wind gust speed)